Location: Boussac
(44.2782°N, 2.3665°E)
Time: 07:16:37
(UTC+00:00)

NOSS 3-3 (C) - Pass Details

Date: 15 May 2026
Orbit: 697 x 1516 km, 63.4° (Epoch: 11 January)

Event Time Altitude Azimuth Distance (km) Brightness Sun altitude
Rises 20:27:34 0° 222° (SW) 3,131 6.7 -12.1°
Reaches altitude 10° 20:29:47 10° 225° (SW) 2,265 6.0 -12.4°
Maximum altitude 20:34:55 72° 310° (NW) 872 4.0 -13.0°
Drops below altitude 10° 20:41:03 10° 35° (NE) 2,696 6.4 -13.8°
Sets 20:43:54 0° 37° (NE) 3,777 7.2 -14.2°
